User: anonymous   Login
Location: Unspecified
(0.0000°N, 0.0000°E)
Time: 01:09:02
(UTC+00:00)
Language:

STARLINK-33618 - Orbit

View from above orbital plane
View from above orbital plane
View from above satellite
View from above satellite

Ground track
Ground track

The orbit is defined by the following mean orbital elements,

1 63374U          26145.58335647 +.00000000 +00000-0 +17801-2 0 00004
2 63374  53.1607  52.6175 0001311  99.1663 126.3344 15.33495264    08
Epoch (UTC): 25 May 2026 14:00:01
Eccentricity: 0.0001311
inclination: 53.1607°
perigee height: 464 km
apogee height: 466 km
right ascension of ascending node: 52.6175°
argument of perigee: 99.1663°
revolutions per day: 15.33495264
mean anomaly at epoch: 126.3344°

The dashed part of the orbit path shows where the satellite is in the earth's shadow,  

DLR